BREEZE-M DEB, 34231

Orbit data source: Space-Track

BREEZE-M DEB, 34231 is space debris in HEO originally from a launch on Tue, 28 Feb 2006 UTC launched from the Tyuratam Missile And Space Complex (TTMTR). Debris objects in space refer to the collection of defunct objects orbiting the Earth. Examples of debris include non-operational satellites, rocket bodies, and fragments generated from explosions, collisions, or faulty payload assembly.

Loading next visibility...
Identifier
34231, 2006-006AW
Orbit
HEO
Country
Flag of CISCIS
Related business
Manufacturer
Khrunichev
Mission
Spacecraft
Bus & Motor
Unknown
Mass
Unknown
Launch date (UTC)
2006-02-28 (20 years ago)
Launch vehicle
Unknown
Launch site
Tyuratam Missile And Space Complex (TTMTR)
Object type
Payload
Rocket body
Debris
Shape & HBR
Unknown shape, 0.1 m
Radar Cross Section
Medium (>0.1 m² and <1 m²)

Expand to show TLE details & history
Last TLE update: 6 days ago

TLE from 6 days ago
0 BREEZE-M DEB
1 34231U 06006AW  26157.31973488  .00002992  00000-0  13304-1 0  9993
2 34231  52.0392 166.1081 4919974  14.9213   1.6835  5.34335045  2672
Epoch: 2026-06-06T07:40Z
TLE epoch observation values (Epoch: 2026-06-06T07:40:25.093Z)
Latitude
16.13205°
Longitude
169.23655°
Altitude
654.827 km
Speed
9.195 km/s
True Right ascension
11h 56m 18s
True Declination
16° 02' 21"
Sunlit
Object was in daylight at epoch
Visualization orbit readout
Latitude
Unknown
Longitude
Unknown
Altitude
Unknown
Speed
Unknown
Apparent Right ascension
Unknown
Apparent Declination
Unknown
Sunlit
N/A
Visualization observer readout
Local Sidereal Time
15:31:29
Azimuth
Unknown
Elevation
Unknown
Doppler factor
Unknown
Orbital elements
Apogee altitude
14,242.622 km
Perigee altitude
642.92 km
Semi-major axis
13,820.908 km
Eccentricity
0.492
Inclination
52.0392°
RAAN
166.1081°
Arg. of periapsis
14.9213°
True anomaly
5.67323°
Mean anomaly
1.6835°
Eccentric anomaly
3.31217°
Mean motion
1.33579 °/min
Orbital period
269.5 mins
BSTAR
0.013304
Loading maneuver chart data...
Computing Atmospheric mass density...
Loading historical data...
Loading historical data...
Loading historical data...
Loading historical data...
Loading historical data...
Loading historical data...
Loading historical data...

Documentation

Showing up to 5 results
|